Poza Rica, Mexico

3:49 AM CDT on May 27, 2018 (GMT -0500)
Tajin

Weather History for MMPA - February, 2013

Change the Weather History Date:

Friday, February 15, 2013

  Actual Average Record
Temperature  
Mean Temperature 68 °F -  
Max Temperature 69 °F 74 °F 89 °F (2012)
Min Temperature 66 °F 60 °F 50 °F (2007)
Cooling Degree Days 2    
Growing Degree Days 18 (Base 50)    
Moisture  
Dew Point 68 °F    
Average Humidity 99    
Maximum Humidity 100    
Minimum Humidity 94    
Precipitation  
Precipitation 3.05 in - - ()
Sea Level Pressure  
Sea Level Pressure 30.07 in    
Wind  
Wind Speed 4 mph ()    
Max Wind Speed 9 mph    
Max Gust Speed -    
Visibility 1.6 miles    
Events Fog , Rain    
Averages and records for this station are not official NWS values.
T = Trace of Precipitation, MM = Missing Value Source: Averaged Metar Reports

Daily Weather History Graph

Daily Weather History Graph

Search for Another Location

Airport or City:

Astronomy

Feb. 15, 2013 Rise Set
Actual Time 6:59 AM CST 6:28 PM CST
Civil Twilight 6:36 AM CST 6:51 PM CST
Nautical Twilight 6:10 AM CST 7:17 PM CST
Astronomical Twilight 5:44 AM CST 7:43 PM CST
Moon 10:26 AM CST (2/15) 11:36 PM CST (2/15)
Length of Visible Light 12h 14m
Length of Day
11h 29m
Waxing Crescent, 30% of the Moon is Illuminated
Feb 15
Waxing Crescent
Feb 17
First Quarter
Feb 25
Full
Mar 4
Last Quarter
Mar 11
New

Hourly Weather History & Observations

Time (CST) Temp. Dew Point Humidity Pressure Visibility Wind Dir Wind Speed Gust Speed Precip Events Conditions
6:05 AM 66.2 °F 64.4 °F 94% 30.08 in 3.0 mi NNW 3.5 mph - N/A   Overcast
6:30 AM 66.2 °F 64.4 °F 94% 30.08 in 3.0 mi NNW 3.5 mph - N/A   Overcast
6:45 AM 66.2 °F 66.2 °F 100% 30.09 in 3.0 mi NNW 3.5 mph - N/A   Overcast
7:45 AM 66.2 °F 66.2 °F 100% 30.09 in 2.5 mi NNW 3.5 mph - N/A   Overcast
8:53 AM 66.2 °F 66.2 °F 100% 30.09 in 1.5 mi NNW 3.5 mph - N/A   Overcast
9:05 AM 66.2 °F 66.2 °F 100% 30.09 in 1.5 mi NNW 3.5 mph - N/A   Overcast
9:53 AM 69.8 °F 69.8 °F 100% 30.09 in 1.5 mi NNW 3.5 mph - N/A   Overcast
10:53 AM 69.8 °F 69.8 °F 100% 30.10 in 1.5 mi NNW 3.5 mph - N/A   Overcast
11:48 AM 69.8 °F 69.8 °F 100% 30.07 in 1.0 mi North 4.6 mph - N/A Rain Light Rain
12:41 PM 68.0 °F 68.0 °F 100% 30.08 in 0.8 mi North 9.2 mph - N/A Rain Light Rain
1:48 PM 68.0 °F 68.0 °F 100% 30.05 in 0.8 mi North 9.2 mph - N/A Rain Light Rain
2:40 PM 68.0 °F 68.0 °F 100% 30.00 in 0.8 mi NNW 6.9 mph - N/A   Light Drizzle
3:40 PM 68.0 °F 68.0 °F 100% 30.02 in 0.8 mi North 6.9 mph - N/A   Light Drizzle
4:23 PM 68.0 °F 68.0 °F 100% 30.01 in 0.5 mi Calm Calm - N/A Fog Drizzle
4:44 PM 68.0 °F 68.0 °F 100% 30.04 in 1.0 mi NE 6.9 mph - N/A   Light Drizzle
5:43 PM 68.0 °F 68.0 °F 100% 30.05 in 3.0 mi Calm Calm - N/A   Overcast
6:40 PM 68.0 °F 68.0 °F 100% 30.07 in 2.0 mi Calm Calm - N/A   Overcast
7:29 PM 68.0 °F 68.0 °F 100% 30.09 in 1.0 mi WNW 6.9 mph - N/A   Light Drizzle
7:45 PM 68.0 °F 68.0 °F 100% 30.09 in 1.0 mi WNW 6.9 mph - N/A   Light Drizzle
8:40 PM 68.0 °F 68.0 °F 100% 30.09 in 1.0 mi Calm Calm - N/A   Light Drizzle